Weather Roundup
Issued by NWS Springfield, MO

Home | Current Version | Previous Version | Text Only | Print | Product List | Glossary On
Versions: 1 2 3 4 5 6 7 8 9 10 11 12 13 14 15 16 17 18 19 20 21 22 23 24 25 26 27 28 29 30 31 32 33 34 35 36 37 38 39 40 41 42 43 44 45 46 47 48 49 50
000
NZUS99 KSGF 010007
HRRSGF

HOURLY WEATHER
NATIONAL WEATHER SERVICE SPRINGFIELD MO
700 PM CDT TUE SEP 30 2014

......SGF CWA......

CITY           SKY/WX    TMP DP  RH WIND       PRES   REMARKS
SPRINGFIELD    PTCLDY    75  57  53 SE8       29.85F
6HR MIN TEMP:  75; 6HR MAX TEMP:  84;

JOPLIN         CLEAR     76  61  59 S8        29.83S
6HR MIN TEMP:  76; 6HR MAX TEMP:  85;

WEST PLAINS    CLEAR     73  53  49 CALM      29.91S
6HR MIN TEMP:  73; 6HR MAX TEMP:  83;

ROLLA          MOCLDY    76  53  44 S3        29.86S
6HR MIN TEMP:  74; 6HR MAX TEMP:  85;

OSAGE BEACH    MOCLDY    73  61  64 S3        29.85S
BRANSON        CLEAR     77  55  47 S6        29.88F

......SURROUNDING SGF CWA......

CITY           SKY/WX    TMP DP  RH WIND       PRES   REMARKS
CHANUTE        CLEAR     77  62  59 SE14      29.78F
PARSONS        CLEAR     78  63  59 SE7       29.79F
COFFEYVILLE    CLEAR     78  63  59 SE10      29.78S
EMPORIA        CLEAR     77  61  57 SE14      29.74F
GROVE OK       CLEAR     77  63  61 SE6       29.83S
ROGERS AR      CLEAR     74  60  61 SE9       29.88S
SILOAM SPRINGS CLEAR     73  57  56 SE7       29.86F
HARRISON AR    CLEAR     73  59  61 S3        29.89S
NEAR YELLVILLE CLEAR     77  54  44 E3        29.87S

......KANSAS AND MISSOURI......

CITY           SKY/WX    TMP DP  RH WIND       PRES   REMARKS
KANSAS CTY INT MOCLDY    75  58  55 S9        29.79S
DOWNTOWN KC    CLEAR     81  57  43 S8        29.78S
COLUMBIA       CLEAR     77  56  48 S5        29.85S
SEDALIA        CLEAR     75  58  55 S6        29.84S
ST JOSEPH      PTCLDY    76  58  53 S9        29.76F
ST LOUIS       PTCLDY    78  59  51 E8        29.88S
SPIRIT OF STL  PTCLDY   N/A N/A N/A SE5       29.85F
KIRKSVILLE     CLEAR     69  61  75 E7        29.87S HAZE
WICHITA        MOCLDY    83  58  42 S18G26    29.70S
TOPEKA         PTCLDY    80  58  46 SE12      29.75S
OLATHE         CLEAR     76  56  49 S9        29.79S

......TENNESSEE......

CITY           SKY/WX    TMP DP  RH WIND       PRES   REMARKS
MEMPHIS        MOCLDY    82  59  45 E6        29.86F
NASHVILLE      MOCLDY    78  50  37 E5        29.90S

......ARKANSAS.......

CITY           SKY/WX    TMP DP  RH WIND       PRES   REMARKS
FAYETTEVILLE   CLEAR     73  62  68 E5        29.87S
FT SMITH       CLEAR     79  62  56 SE5       29.82F
LITTLE ROCK    MOCLDY    80  58  46 CALM      29.85S

......OKLAHOMA.......

CITY           SKY/WX    TMP DP  RH WIND       PRES   REMARKS
TULSA          PTCLDY    81  63  54 SE17      29.77F
PONCA CITY     CLEAR     83  61  47 SE12      29.72F
MCALESTER      CLEAR     80  66  62 E7        29.80S
OKLAHOMA CITY  PTCLDY    83  58  42 S13       29.74S

......IOWA............

CITY           SKY/WX    TMP DP  RH WIND       PRES   REMARKS
DES MOINES     CLOUDY    69  58  67 SE12      29.84R

......ILLINOIS........

CITY           SKY/WX    TMP DP  RH WIND       PRES   REMARKS
QUINCY         CLEAR     69  60  73 E6        29.89S
CHICAGO        DRIZZLE   52  50  93 NE6       30.01F



USA.gov is the U.S. government's official web portal to all federal, state and local government web resources and services.